Location: Unspecified
(0.0000°N, 0.0000°E)
Time: 17:51:17
(UTC+00:00)

Vanguard 3 - Pass Details

Date: 25 September 2023
Orbit: 507 x 3241 km, 33.3° (Epoch: 29 November)

Event Time Altitude Azimuth Distance (km) Brightness Sun altitude
Rises 07:58:03 0° 237° (WSW) 4,651 10.6 31.6°
Reaches altitude 10° 08:03:19 10° 212° (SSW) 4,256 10.6 32.9°
Maximum altitude 08:08:47 14° 185° (S) 4,480 11.0 34.2°
Drops below altitude 10° 08:15:28 10° 159° (SSE) 5,358 11.7 35.9°
Sets 08:24:18 0° 137° (SE) 6,905 12.4 38.1°
